,,PA_Meas_PMT16A,,PR_Meas_QMR101_102,,RH_Meas_QMH101,,SR_Meas_QMS101,,TA_Meas_QMH101,,GenWind,,GenWind,
time,status,PA,status,PR,status,RH,status,SR,status,TA,status,DirAvg,status,SpdAvg,
2016-06-16, 07:30:04,VALID,916.8,VALID,0,INVALID,113.459,VALID,94.1184,VALID,20.1529,VALID,94,VALID,0,
2016-06-16, 07:31:04,VALID,916.824,VALID,0,INVALID,113.604,VALID,98.5235,VALID,20.1513,VALID,94,VALID,0,
2016-06-16, 07:32:04,VALID,916.813,VALID,0,INVALID,113.779,VALID,103.681,VALID,20.1739,VALID,94,VALID,0,
2016-06-16, 07:33:04,VALID,916.852,VALID,0,INVALID,113.863,VALID,109.912,VALID,20.1739,VALID,94,VALID,0,
2016-06-16, 07:34:04,VALID,916.829,VALID,0,INVALID,114.008,VALID,116.144,VALID,20.1919,VALID,94,VALID,0,
2016-06-16, 07:35:04,VALID,916.889,VALID,0,INVALID,114.046,VALID,123.45,VALID,20.1919,VALID,70,VALID,0,
2016-06-16, 07:36:04,VALID,916.883,VALID,0,INVALID,114.115,VALID,130.004,VALID,20.2504,VALID,62,VALID,0,
2016-06-16, 07:37:04,VALID,916.9,VALID,0,INVALID,114.222,VALID,134.624,VALID,20.3089,VALID,71,VALID,0,
2016-06-16, 07:38:04,VALID,916.896,VALID,0,INVALID,114.229,VALID,134.194,VALID,20.3885,VALID,84,VALID,0,
2016-06-16, 07:39:04,VALID,916.891,VALID,0,INVALID,114.382,VALID,132.905,VALID,20.408,VALID,73,VALID,0,
2016-06-16, 07:40:04,VALID,916.905,VALID,0,INVALID,114.565,VALID,132.475,VALID,20.408,VALID,87,VALID,0,
2016-06-16, 07:41:04,VALID,916.909,VALID,0,INVALID,114.565,VALID,129.359,VALID,20.447,VALID,91,VALID,0,
2016-06-16, 07:42:04,VALID,916.938,VALID,0,INVALID,114.603,VALID,126.995,VALID,20.525,VALID,92,VALID,0,
2016-06-16, 07:43:04,VALID,916.943,VALID,0,INVALID,114.649,VALID,123.88,VALID,20.582,VALID,113,VALID,0,
2016-06-16, 07:44:04,VALID,916.939,VALID,0,INVALID,114.671,VALID,125.491,VALID,20.6405,VALID,115,VALID,0,
2016-06-16, 07:45:04,VALID,916.961,VALID,0,INVALID,114.641,VALID,127.103,VALID,20.7381,VALID,112,VALID,0,
2016-06-16, 07:46:04,VALID,916.964,VALID,0,INVALID,114.671,VALID,128.07,VALID,20.8746,VALID,63,VALID,0,
2016-06-16, 07:47:04,VALID,916.981,VALID,0,INVALID,114.74,VALID,128.392,VALID,20.912,VALID,59,VALID,0,
2016-06-16, 07:48:04,VALID,916.995,VALID,0,INVALID,114.588,VALID,128.5,VALID,20.8551,VALID,96,VALID,0,
2016-06-16, 07:49:04,VALID,916.964,VALID,0,INVALID,114.153,VALID,135.376,VALID,20.7771,VALID,106,VALID,0,
2016-06-16, 07:50:04,VALID,916.975,VALID,0,INVALID,114.062,VALID,138.921,VALID,20.7365,VALID,99,VALID,0,
2016-06-16, 07:51:04,VALID,917.006,VALID,0,INVALID,114.138,VALID,147.517,VALID,20.8161,VALID,74,VALID,0,
2016-06-16, 07:52:04,VALID,916.978,VALID,0,INVALID,114.184,VALID,147.194,VALID,20.834,VALID,121,VALID,0,
2016-06-16, 07:53:04,VALID,916.994,VALID,0,INVALID,114.161,VALID,145.368,VALID,20.9331,VALID,120,VALID,0,
2016-06-16, 07:54:04,VALID,917.051,VALID,0,INVALID,114.008,VALID,134.516,VALID,20.9917,VALID,104,VALID,0,
2016-06-16, 07:55:04,VALID,917.051,VALID,0,INVALID,113.741,VALID,139.566,VALID,21.0112,VALID,85,VALID,0,
2016-06-16, 07:56:04,VALID,917.051,VALID,0,INVALID,113.749,VALID,143.112,VALID,21.0486,VALID,85,VALID,0,
2016-06-16, 07:57:04,VALID,917.069,VALID,0,INVALID,113.894,VALID,132.475,VALID,21.1461,VALID,85,VALID,0,
2016-06-16, 07:58:04,VALID,917.056,VALID,0,INVALID,113.741,VALID,142.574,VALID,21.2437,VALID,85,VALID,0,
2016-06-16, 07:59:04,VALID,917.075,VALID,0,INVALID,113.185,VALID,144.293,VALID,21.3022,VALID,122,VALID,0,
2016-06-16, 08:00:04,VALID,917.07,VALID,0,INVALID,112.567,VALID,150.632,VALID,21.2632,VALID,122,VALID,0,
2016-06-16, 08:01:04,VALID,917.091,VALID,0,INVALID,112.339,VALID,145.153,VALID,21.2827,VALID,123,VALID,0,
2016-06-16, 08:02:04,VALID,917.086,VALID,0,INVALID,112.057,VALID,148.376,VALID,21.2632,VALID,142,VALID,0,
2016-06-16, 08:03:04,VALID,917.075,VALID,0,INVALID,111.485,VALID,152.566,VALID,21.2047,VALID,142,VALID,0,
2016-06-16, 08:04:04,VALID,917.098,VALID,0,INVALID,111.614,VALID,149.88,VALID,21.2063,VALID,141,VALID,0,
2016-06-16, 08:05:04,VALID,917.104,VALID,0,INVALID,112.087,VALID,142.682,VALID,21.1852,VALID,140,VALID,0,
2016-06-16, 08:06:04,VALID,917.101,VALID,0,INVALID,112.377,VALID,135.161,VALID,21.2063,VALID,139,VALID,0,
2016-06-16, 08:07:04,VALID,917.152,VALID,0,INVALID,112.598,VALID,135.268,VALID,21.164,VALID,139,VALID,0,
2016-06-16, 08:08:04,VALID,917.155,VALID,0,INVALID,112.072,VALID,142.789,VALID,21.164,VALID,139,VALID,0,
2016-06-16, 08:09:04,VALID,917.165,VALID,0,INVALID,111.752,VALID,146.765,VALID,21.2031,VALID,139,VALID,0,
2016-06-16, 08:10:04,VALID,917.17,VALID,0,INVALID,111.538,VALID,152.459,VALID,21.3217,VALID,139,VALID,0,
2016-06-16, 08:11:04,VALID,917.213,VALID,0,INVALID,111.088,VALID,152.674,VALID,21.3981,VALID,139,VALID,0,
2016-06-16, 08:12:04,VALID,917.194,VALID,0,INVALID,110.501,VALID,149.773,VALID,21.4778,VALID,139,VALID,0,
2016-06-16, 08:13:04,VALID,917.235,VALID,0,INVALID,110.052,VALID,155.79,VALID,21.5754,VALID,139,VALID,0,
2016-06-16, 08:14:04,VALID,917.234,VALID,0,INVALID,109.503,VALID,165.244,VALID,21.6323,VALID,139,VALID,0,
2016-06-16, 08:15:04,VALID,917.27,VALID,0,INVALID,109.228,VALID,183.617,VALID,21.7315,VALID,139,VALID,0,
2016-06-16, 08:16:04,VALID,917.244,VALID,0,VALID,104,VALID,209.725,VALID,21.829,VALID,139,VALID,0,
2016-06-16, 08:17:04,VALID,917.218,VALID,0,VALID,104,VALID,241.957,VALID,21.9461,VALID,138,VALID,0,
2016-06-16, 08:18:04,VALID,917.249,VALID,0,VALID,104,VALID,261.297,VALID,22.0454,VALID,138,VALID,0,
2016-06-16, 08:19:04,VALID,917.204,VALID,0,VALID,104,VALID,268.818,VALID,22.1591,VALID,138,VALID,0,
2016-06-16, 08:20:04,VALID,917.196,VALID,0,VALID,104,VALID,285.256,VALID,22.2779,VALID,138,VALID,0,
2016-06-16, 08:21:04,VALID,917.181,VALID,0,VALID,104,VALID,286.975,VALID,22.3169,VALID,84,VALID,0,
2016-06-16, 08:22:04,VALID,917.216,VALID,0,VALID,104,VALID,289.232,VALID,22.3754,VALID,84,VALID,0,
2016-06-16, 08:23:04,VALID,917.218,VALID,0,VALID,100.461,VALID,274.834,VALID,22.5316,VALID,84,VALID,0,
2016-06-16, 08:24:04,VALID,917.195,VALID,0,VALID,88.8967,VALID,272.256,VALID,22.647,VALID,84,VALID,0,
2016-06-16, 08:25:04,VALID,917.213,VALID,0,VALID,86.8688,VALID,283.215,VALID,22.7445,VALID,84,VALID,0,
2016-06-16, 08:26:04,VALID,917.226,VALID,0,VALID,86.6859,VALID,277.091,VALID,22.9592,VALID,83,VALID,0,
2016-06-16, 08:27:04,VALID,917.238,VALID,0,VALID,82.0966,VALID,256.462,VALID,23.0959,VALID,83,VALID,0,
2016-06-16, 08:28:04,VALID,917.248,VALID,0,VALID,81.2122,VALID,247.115,VALID,23.1154,VALID,84,VALID,0,
2016-06-16, 08:29:04,VALID,917.278,VALID,0,VALID,81.3723,VALID,249.478,VALID,23.1154,VALID,84,VALID,0,
2016-06-16, 08:30:04,VALID,917.259,VALID,0,VALID,82.9961,VALID,250.016,VALID,23.1154,VALID,84,VALID,0,
2016-06-16, 08:31:04,VALID,917.279,VALID,0,VALID,83.2553,VALID,241.098,VALID,23.2325,VALID,83,VALID,0,
2016-06-16, 08:32:04,VALID,917.282,VALID,0,VALID,82.6302,VALID,231.106,VALID,23.2325,VALID,84,VALID,0,
2016-06-16, 08:33:04,VALID,917.3,VALID,0,VALID,84.5284,VALID,234.544,VALID,23.1739,VALID,83,VALID,0,
2016-06-16, 08:34:04,VALID,917.32,VALID,0,VALID,84.2006,VALID,209.188,VALID,23.2112,VALID,83,VALID,0,
2016-06-16, 08:35:04,VALID,917.282,VALID,0,VALID,83.5831,VALID,212.411,VALID,23.2715,VALID,83,VALID,0,
2016-06-16, 08:36:04,VALID,917.293,VALID,0,VALID,81.4181,VALID,212.519,VALID,23.3691,VALID,83,VALID,0,
2016-06-16, 08:37:04,VALID,917.31,VALID,0,VALID,82.6607,VALID,206.502,VALID,23.3478,VALID,83,VALID,0,
2016-06-16, 08:38:04,VALID,917.301,VALID,0,VALID,81.6239,VALID,197.477,VALID,23.2911,VALID,84,VALID,0,
2016-06-16, 08:39:04,VALID,917.343,VALID,0,VALID,82.6836,VALID,208.328,VALID,23.213,VALID,84,VALID,0,
2016-06-16, 08:40:04,VALID,917.384,VALID,0,VALID,84.5589,VALID,242.924,VALID,23.1722,VALID,84,VALID,0,
2016-06-16, 08:41:04,VALID,917.352,VALID,0,VALID,84.5056,VALID,255.495,VALID,23.2112,VALID,69,VALID,0,
2016-06-16, 08:42:04,VALID,917.369,VALID,0,VALID,84.2769,VALID,260.008,VALID,23.2911,VALID,48,VALID,0,
2016-06-16, 08:43:04,VALID,917.349,VALID,0,VALID,83.4154,VALID,260.652,VALID,23.3283,VALID,31,VALID,0,
2016-06-16, 08:44:04,VALID,917.394,VALID,0,VALID,83.8881,VALID,265.702,VALID,23.3478,VALID,31,VALID,0,
2016-06-16, 08:45:04,VALID,917.372,VALID,0,VALID,83.4307,VALID,217.676,VALID,23.4277,VALID,31,VALID,0,
2016-06-16, 08:46:04,VALID,917.376,VALID,0,VALID,84.2997,VALID,202.312,VALID,23.4667,VALID,31,VALID,0,
2016-06-16, 08:47:04,VALID,917.404,VALID,0,VALID,83.8576,VALID,207.469,VALID,23.5448,VALID,37,VALID,0,
2016-06-16, 08:48:04,VALID,917.413,VALID,0,VALID,81.967,VALID,201.989,VALID,23.6229,VALID,27,VALID,0,
2016-06-16, 08:49:04,VALID,917.419,VALID,0,VALID,80.1526,VALID,195.65,VALID,23.6229,VALID,27,VALID,0,
2016-06-16, 08:50:04,VALID,917.447,VALID,0,VALID,80.5795,VALID,195.221,VALID,23.5803,VALID,66,VALID,0,
2016-06-16, 08:51:04,VALID,917.465,VALID,0,VALID,80.4575,VALID,198.444,VALID,23.465,VALID,66,VALID,0,
2016-06-16, 08:52:04,VALID,917.462,VALID,0,VALID,80.7548,VALID,202.419,VALID,23.229,VALID,49,VALID,0,
2016-06-16, 08:53:04,VALID,917.484,VALID,0,VALID,82.8818,VALID,208.006,VALID,23.1509,VALID,30,VALID,0,
2016-06-16, 08:54:04,VALID,917.463,VALID,0,VALID,82.432,VALID,198.014,VALID,23.0941,VALID,48,VALID,0,
2016-06-16, 08:55:04,VALID,917.462,VALID,0,VALID,82.4091,VALID,186.625,VALID,22.977,VALID,55,VALID,0,
2016-06-16, 08:56:04,VALID,917.464,VALID,0,VALID,84.6733,VALID,183.187,VALID,22.8794,VALID,54,VALID,0,
2016-06-16, 08:57:04,VALID,917.495,VALID,0,VALID,92.2052,VALID,188.129,VALID,22.8209,INVALID,360,VALID,0,
2016-06-16, 08:58:04,VALID,917.492,VALID,0,VALID,85.4204,VALID,195.113,VALID,22.7818,VALID,20,VALID,0,
2016-06-16, 08:59:04,VALID,917.501,VALID,0,VALID,94.8734,VALID,198.014,VALID,22.8014,VALID,356,VALID,0,
2016-06-16, 09:00:04,VALID,917.486,VALID,0,VALID,99.6533,VALID,198.551,VALID,22.7818,INVALID,360,VALID,0,
2016-06-16, 09:01:04,VALID,917.497,VALID,0,VALID,99.5008,VALID,208.973,VALID,22.7216,VALID,356,VALID,0,
2016-06-16, 09:02:04,VALID,917.512,VALID,0,VALID,99.3941,VALID,213.056,VALID,22.6045,VALID,287,VALID,0,
2016-06-16, 09:03:04,VALID,917.482,VALID,0,VALID,102.459,VALID,204.246,VALID,22.4874,VALID,288,VALID,0,
2016-06-16, 09:04:04,VALID,917.462,VALID,0,VALID,92.6321,VALID,200.055,VALID,22.4679,VALID,288,VALID,0,
2016-06-16, 09:05:04,VALID,917.482,VALID,0,VALID,100.721,VALID,211.659,VALID,22.5867,VALID,288,VALID,0,
2016-06-16, 09:06:04,VALID,917.469,VALID,0,VALID,95.0411,VALID,227.883,VALID,22.6825,VALID,288,VALID,0,
2016-06-16, 09:07:04,VALID,917.469,VALID,0,VALID,82.554,VALID,247.974,VALID,22.7996,VALID,288,VALID,0,
2016-06-16, 09:08:04,VALID,917.465,VALID,0,VALID,81.6697,VALID,256.892,VALID,22.8404,VALID,289,VALID,0,
2016-06-16, 09:09:04,VALID,917.453,VALID,0,VALID,82.9809,VALID,275.479,VALID,22.9362,VALID,3,VALID,0,
2016-06-16, 09:10:04,VALID,917.446,VALID,0,VALID,84.2464,VALID,283.752,VALID,23.0728,VALID,19,VALID,0,
2016-06-16, 09:11:04,VALID,917.48,VALID,0,VALID,82.028,VALID,292.347,VALID,23.1314,VALID,29,VALID,0,
2016-06-16, 09:12:04,VALID,917.434,VALID,0,VALID,83.8652,VALID,307.926,VALID,23.268,VALID,344,VALID,0,
2016-06-16, 09:13:04,VALID,917.406,VALID,0,VALID,81.8221,VALID,309.968,VALID,23.3656,VALID,345,VALID,0,
2016-06-16, 09:14:04,VALID,917.415,VALID,0,VALID,83.3468,VALID,319.745,VALID,23.4827,VALID,19,VALID,0,
2016-06-16, 09:15:04,VALID,917.43,VALID,0,VALID,81.4638,VALID,346.82,VALID,23.6211,VALID,22,VALID,0,
2016-06-16, 09:16:04,VALID,917.426,VALID,0,VALID,78.9557,VALID,347.68,VALID,23.6815,VALID,321,VALID,0,
2016-06-16, 09:17:04,VALID,917.396,VALID,0,VALID,80.2136,VALID,340.159,VALID,23.504,VALID,307,VALID,0,
2016-06-16, 09:18:04,VALID,917.435,VALID,0,VALID,81.3723,VALID,327.91,VALID,23.4259,VALID,23,VALID,0,
2016-06-16, 09:19:04,VALID,917.41,VALID,0,VALID,80.5719,VALID,313.513,VALID,23.4454,VALID,8,VALID,0,
2016-06-16, 09:20:04,VALID,917.434,VALID,0,VALID,80.9759,VALID,263.983,VALID,23.5235,VALID,1,VALID,0,
2016-06-16, 09:21:04,VALID,917.429,VALID,0,VALID,80.2746,VALID,259.148,VALID,23.5412,VALID,290,VALID,0,
2016-06-16, 09:22:04,VALID,917.448,VALID,0,VALID,80.8082,VALID,270.859,VALID,23.5235,VALID,290,VALID,0,
2016-06-16, 09:23:04,VALID,917.468,VALID,0,VALID,80.7548,VALID,266.776,VALID,23.4845,VALID,290,VALID,0,
2016-06-16, 09:24:04,VALID,917.478,VALID,0,VALID,81.5401,VALID,269.462,VALID,23.4454,VALID,290,VALID,0,
2016-06-16, 09:25:04,VALID,917.531,VALID,0,VALID,82.2719,VALID,264.628,VALID,23.5235,VALID,290,VALID,0,
2016-06-16, 09:26:04,VALID,917.545,VALID,0,VALID,82.4396,VALID,256.14,VALID,23.6584,VALID,323,VALID,0,
2016-06-16, 09:27:04,VALID,917.54,VALID,0,VALID,81.8984,VALID,250.445,VALID,23.7968,VALID,323,VALID,0,
2016-06-16, 09:28:04,VALID,917.558,VALID,0,VALID,81.1284,VALID,248.726,VALID,23.9316,VALID,323,VALID,0,
2016-06-16, 09:29:04,VALID,917.565,VALID,0,VALID,80.8768,VALID,250.23,VALID,24.0292,VALID,323,VALID,0,
2016-06-16, 09:30:04,VALID,917.565,VALID,0,VALID,79.4207,VALID,251.305,VALID,24.1073,VALID,323,VALID,0,
2016-06-16, 09:31:04,VALID,917.56,VALID,0,VALID,78.5898,VALID,251.09,VALID,24.2245,VALID,323,VALID,0,
2016-06-16, 09:32:04,VALID,917.574,VALID,0,VALID,75.9597,VALID,256.462,VALID,24.3044,VALID,338,VALID,0,
2016-06-16, 09:33:04,VALID,917.582,VALID,0,VALID,78.2239,VALID,253.454,VALID,24.2635,VALID,313,VALID,0,
2016-06-16, 09:34:04,VALID,917.602,VALID,0,VALID,78.4145,VALID,246.9,VALID,24.244,VALID,3,VALID,0,
2016-06-16, 09:35:04,VALID,917.638,VALID,0,VALID,78.079,VALID,254.958,VALID,24.283,VALID,11,VALID,0,
2016-06-16, 09:36:04,VALID,917.631,VALID,0,VALID,76.2494,VALID,257.536,VALID,24.2635,VALID,348,VALID,0,
2016-06-16, 09:37:04,VALID,917.629,VALID,0,VALID,74.6485,VALID,258.611,VALID,24.1464,VALID,5,VALID,0,
2016-06-16, 09:38:04,VALID,917.642,VALID,0,VALID,76.0741,VALID,261.297,VALID,24.0683,VALID,15,VALID,0,
2016-06-16, 09:39:04,VALID,917.648,VALID,0,VALID,77.797,VALID,267.743,VALID,24.1464,VALID,12,VALID,0,
2016-06-16, 09:40:04,VALID,917.654,VALID,0,VALID,77.1185,VALID,271.826,VALID,24.2068,VALID,16,VALID,0,
2016-06-16, 09:41:04,VALID,917.648,VALID,0,VALID,77.088,VALID,254.743,VALID,24.283,VALID,6,VALID,0,
2016-06-16, 09:42:04,VALID,917.668,VALID,0,VALID,75.2584,VALID,248.726,VALID,24.283,VALID,343,VALID,0,
2016-06-16, 09:43:04,VALID,917.645,VALID,0,VALID,77.2481,VALID,257.751,VALID,24.1854,VALID,355,VALID,0,
2016-06-16, 09:44:04,VALID,917.63,VALID,0,VALID,77.3624,VALID,246.9,VALID,24.0292,VALID,309,VALID,0,
2016-06-16, 09:45:04,VALID,917.647,VALID,0,VALID,78.3306,VALID,254.098,VALID,23.9512,VALID,319,VALID,0,
2016-06-16, 09:46:04,VALID,917.64,VALID,0,VALID,78.9938,VALID,278.058,VALID,23.8731,VALID,343,VALID,0,
2016-06-16, 09:47:04,VALID,917.626,VALID,0,VALID,80.3279,VALID,241.743,VALID,23.8926,VALID,6,VALID,0,
2016-06-16, 09:48:04,VALID,917.62,VALID,0,VALID,79.1768,VALID,241.743,VALID,23.8926,VALID,19,VALID,0,
2016-06-16, 09:49:04,VALID,917.618,VALID,0,VALID,80.8235,VALID,241.42,VALID,23.9121,VALID,1,VALID,0,
2016-06-16, 09:50:04,VALID,917.617,VALID,0,VALID,80.8997,VALID,246.47,VALID,23.8908,VALID,24,VALID,0,
2016-06-16, 09:51:04,VALID,917.615,VALID,0,VALID,80.9454,VALID,249.371,VALID,23.9512,VALID,28,VALID,0,
2016-06-16, 09:52:04,VALID,917.609,VALID,0,VALID,82.028,VALID,257.214,VALID,24.0097,VALID,33,VALID,0,
2016-06-16, 09:53:04,VALID,917.602,VALID,0,VALID,80.0078,VALID,259.9,VALID,24.086,VALID,13,VALID,0,
2016-06-16, 09:54:04,VALID,917.597,VALID,0,VALID,81.075,VALID,278.273,VALID,24.0683,VALID,20,VALID,0,
2016-06-16, 09:55:04,VALID,917.584,VALID,0,VALID,82.5235,VALID,318.778,VALID,24.1073,VALID,14,VALID,0,
2016-06-16, 09:56:04,VALID,917.576,VALID,0,VALID,82.2719,VALID,285.793,VALID,24.1073,VALID,15,VALID,0,
2016-06-16, 09:57:04,VALID,917.525,VALID,0,VALID,80.1755,VALID,313.728,VALID,24.0878,VALID,351,VALID,0,
2016-06-16, 09:58:04,VALID,917.541,VALID,0,VALID,79.0548,VALID,351.977,VALID,24.0079,VALID,339,VALID,0,
2016-06-16, 09:59:04,VALID,917.521,VALID,0,VALID,80.4957,VALID,320.927,VALID,23.9121,VALID,340,VALID,0,
2016-06-16, 10:00:04,VALID,917.496,VALID,0,VALID,83.1791,VALID,299.116,VALID,23.8163,VALID,18,VALID,0,
2016-06-16, 10:01:04,VALID,917.483,VALID,0,VALID,84.4751,VALID,332.101,VALID,23.756,VALID,28,VALID,0,
2016-06-16, 10:02:04,VALID,917.476,VALID,0,VALID,84.5589,VALID,429.55,VALID,23.756,VALID,25,VALID,0.691797,
2016-06-16, 10:03:04,VALID,917.435,VALID,0,VALID,80.6176,VALID,301.587,VALID,23.7968,VALID,8,VALID,0.108984,
2016-06-16, 10:04:04,VALID,917.446,VALID,0,VALID,82.3176,VALID,326.514,VALID,23.8163,VALID,25,VALID,0,
2016-06-16, 10:05:04,VALID,917.431,VALID,0,VALID,84.841,VALID,390.334,VALID,23.8908,INVALID,360,INVALID,0,
2016-06-16, 10:06:04,VALID,917.417,VALID,0,VALID,81.5934,VALID,435.029,VALID,23.9902,VALID,12,VALID,0,
2016-06-16, 10:07:04,VALID,917.397,VALID,0,VALID,81.6697,VALID,419.665,VALID,24.0311,VALID,24,VALID,1.50195,
2016-06-16, 10:08:04,VALID,917.415,VALID,0,VALID,81.0293,VALID,573.843,VALID,24.1073,VALID,41,VALID,0.313672,
2016-06-16, 10:09:04,VALID,917.424,VALID,0,VALID,80.1221,VALID,576.852,VALID,24.363,VALID,37,VALID,0,
2016-06-16, 10:10:04,VALID,917.403,VALID,0,VALID,80.6329,VALID,498.634,VALID,24.5973,VALID,16,VALID,0,
2016-06-16, 10:11:04,VALID,917.443,VALID,0,VALID,79.8934,VALID,572.984,VALID,24.7321,VALID,27,VALID,0,
2016-06-16, 10:12:04,VALID,917.42,VALID,0,VALID,78.9862,VALID,564.818,VALID,24.9859,VALID,326,VALID,0,
2016-06-16, 10:13:04,VALID,917.43,VALID,0,VALID,75.2507,VALID,543.115,VALID,25.1422,VALID,217,VALID,0.255078,
2016-06-16, 10:14:04,VALID,917.404,VALID,0,VALID,73.7032,VALID,445.021,VALID,25.3003,VALID,247,VALID,0,
2016-06-16, 10:15:04,VALID,917.375,VALID,0,VALID,76.6001,VALID,412.037,VALID,25.398,VALID,321,VALID,0,
2016-06-16, 10:16:04,VALID,917.392,VALID,0,VALID,73.6803,VALID,419.021,VALID,25.4546,VALID,359,VALID,0,
2016-06-16, 10:17:04,VALID,917.382,VALID,0,VALID,75.1135,VALID,385.821,VALID,25.4351,VALID,359,VALID,0.786328,
2016-06-16, 10:18:04,VALID,917.392,VALID,0,VALID,73.97,VALID,295.248,VALID,25.2593,VALID,275,VALID,0.275781,
2016-06-16, 10:19:04,VALID,917.38,VALID,0,VALID,75.1135,VALID,269.033,VALID,25.1617,VALID,9,VALID,0,
2016-06-16, 10:20:04,VALID,917.382,VALID,0,VALID,75.4108,VALID,312.869,VALID,25.1617,VALID,9,VALID,0,
2016-06-16, 10:21:04,VALID,917.372,VALID,0,VALID,74.5951,VALID,276.983,VALID,25.2007,VALID,13,VALID,0,
2016-06-16, 10:22:04,VALID,917.387,VALID,0,VALID,75.1059,VALID,322.861,VALID,25.1012,VALID,19,VALID,0,
2016-06-16, 10:23:04,VALID,917.44,VALID,0,VALID,75.2507,VALID,232.825,VALID,25.1012,VALID,19,VALID,0,
2016-06-16, 10:24:04,VALID,917.434,VALID,0,VALID,75.3117,VALID,241.635,VALID,25.0836,VALID,19,VALID,0.851953,
2016-06-16, 10:25:04,VALID,917.427,VALID,0,VALID,77.3929,VALID,222.081,VALID,25.0055,VALID,19,VALID,0.786328,
2016-06-16, 10:26:04,VALID,917.448,VALID,0,VALID,77.1566,VALID,205.965,VALID,25.0055,VALID,18,VALID,0.645703,
2016-06-16, 10:27:04,VALID,917.458,VALID,0,VALID,76.7068,VALID,203.708,VALID,24.9645,VALID,19,VALID,0,
2016-06-16, 10:28:04,VALID,917.463,VALID,0,VALID,76.501,VALID,208.973,VALID,24.9469,VALID,19,VALID,0,
2016-06-16, 10:29:04,VALID,917.446,VALID,0,VALID,76.6001,VALID,220.147,VALID,24.9859,VALID,14,VALID,0,
2016-06-16, 10:30:04,VALID,917.429,VALID,0,VALID,75.5252,VALID,229.924,VALID,24.9645,VALID,360,VALID,0,
2016-06-16, 10:31:04,VALID,917.446,VALID,0,VALID,75.4108,VALID,248.189,VALID,24.945,VALID,360,VALID,0,
2016-06-16, 10:32:04,VALID,917.455,VALID,0,VALID,76.0283,VALID,278.702,VALID,24.9274,VALID,360,VALID,0,
2016-06-16, 10:33:04,VALID,917.428,VALID,0,VALID,76.6153,VALID,294.926,VALID,24.9469,VALID,360,VALID,0,
2016-06-16, 10:34:04,VALID,917.43,VALID,0,VALID,75.6395,VALID,688.268,VALID,24.984,VALID,359,VALID,0,
2016-06-16, 10:35:04,VALID,917.424,VALID,0,VALID,74.5341,VALID,687.946,VALID,25.1012,VALID,360,VALID,0,
2016-06-16, 10:36:04,VALID,917.399,VALID,0,VALID,76.3942,VALID,482.411,VALID,25.2007,VALID,360,VALID,0,
2016-06-16, 10:37:04,VALID,917.367,VALID,0,VALID,75.1059,VALID,316.737,VALID,25.2379,VALID,317,VALID,0,
2016-06-16, 10:38:04,VALID,917.392,VALID,0,VALID,76.1579,VALID,310.075,VALID,25.2769,VALID,19,VALID,0,
2016-06-16, 10:39:04,VALID,917.37,VALID,0,VALID,73.7413,VALID,329.415,VALID,25.2379,VALID,279,VALID,0,
2016-06-16, 10:40:04,VALID,917.385,VALID,0,VALID,75.2355,VALID,329.415,VALID,25.1598,VALID,35,VALID,0.148828,
2016-06-16, 10:41:04,VALID,917.401,VALID,0,VALID,76.2418,VALID,298.257,VALID,25.0055,VALID,18,VALID,0,
2016-06-16, 10:42:04,VALID,917.409,VALID,0,VALID,78.1324,VALID,404.409,VALID,24.9255,VALID,73,VALID,0,
2016-06-16, 10:43:04,VALID,917.401,VALID,0,VALID,76.0969,VALID,303.629,VALID,24.8669,VALID,107,VALID,0,
2016-06-16, 10:44:04,VALID,917.409,VALID,0,VALID,79.1311,VALID,308.464,VALID,24.8297,VALID,42,VALID,0,
2016-06-16, 10:45:04,VALID,917.417,VALID,0,VALID,79.6876,VALID,325.762,VALID,24.8492,VALID,38,VALID,0,
2016-06-16, 10:46:04,VALID,917.403,VALID,0,VALID,76.7221,VALID,349.828,VALID,24.8864,VALID,359,VALID,0.226953,
2016-06-16, 10:47:04,VALID,917.416,VALID,0,VALID,76.6839,VALID,375.937,VALID,24.8492,VALID,320,VALID,0,
2016-06-16, 10:48:04,VALID,917.419,VALID,0,VALID,75.8835,VALID,448.459,VALID,24.8278,VALID,273,VALID,0,
2016-06-16, 10:49:04,VALID,917.383,VALID,0,VALID,77.3091,VALID,692.566,VALID,24.6521,VALID,276,VALID,0,
2016-06-16, 10:50:04,VALID,917.376,VALID,0,VALID,79.5656,VALID,611.662,VALID,24.6716,VALID,289,VALID,0,
2016-06-16, 10:51:04,VALID,917.338,VALID,0,VALID,79.7257,VALID,693.318,VALID,24.8669,INVALID,360,VALID,0,
2016-06-16, 10:52:04,VALID,917.341,VALID,0,VALID,75.3651,VALID,741.451,VALID,24.984,VALID,334,VALID,0,
2016-06-16, 10:53:04,VALID,917.309,VALID,0,VALID,75.5328,VALID,921.2,VALID,25.0231,VALID,349,VALID,0,
2016-06-16, 10:54:04,VALID,917.304,VALID,0,VALID,74.9992,VALID,921.953,VALID,25.2379,VALID,358,VALID,0,
2016-06-16, 10:55:04,VALID,917.342,VALID,0,VALID,75.144,VALID,918.729,VALID,25.3941,VALID,2,VALID,0,
2016-06-16, 10:56:04,VALID,917.309,VALID,0,VALID,74.6637,VALID,911.638,VALID,25.4331,VALID,255,VALID,0,
2016-06-16, 10:57:04,VALID,917.338,VALID,0,VALID,76.2875,VALID,895.307,VALID,25.6089,VALID,66,VALID,0,
2016-06-16, 10:58:04,VALID,917.278,VALID,0,VALID,75.6624,VALID,375.292,VALID,25.8433,VALID,11,VALID,0.278516,
2016-06-16, 10:59:04,VALID,917.254,VALID,0,VALID,72.6512,VALID,359.606,VALID,25.9019,VALID,7,VALID,0,
2016-06-16, 11:00:04,VALID,917.279,VALID,0,VALID,72.3005,VALID,384.747,VALID,25.8608,VALID,33,VALID,0,
2016-06-16, 11:01:04,VALID,917.242,VALID,0,VALID,70.913,VALID,442.443,VALID,25.9389,VALID,342,VALID,0,
2016-06-16, 11:02:04,VALID,917.229,VALID,0,VALID,72.0337,VALID,364.011,VALID,25.8804,VALID,305,VALID,0,
2016-06-16, 11:03:04,VALID,917.24,VALID,0,VALID,74.2978,VALID,408.276,VALID,25.9214,VALID,342,VALID,0,
2016-06-16, 11:04:04,VALID,917.224,VALID,0,VALID,72.1251,VALID,755.311,VALID,25.9585,VALID,293,VALID,0,
2016-06-16, 11:05:04,VALID,917.199,VALID,0,VALID,70.7453,VALID,527.321,VALID,25.98,VALID,51,VALID,0.0398437,
2016-06-16, 11:06:04,VALID,917.173,VALID,0,VALID,70.7987,VALID,908.2,VALID,25.98,VALID,53,VALID,0.00351562,
2016-06-16, 11:07:04,VALID,917.144,VALID,0,VALID,72.6054,VALID,529.685,VALID,26.1362,VALID,54,VALID,0,
2016-06-16, 11:08:04,VALID,917.082,VALID,0,VALID,71.7058,VALID,858.885,VALID,26.2339,VALID,281,VALID,0.307031,
2016-06-16, 11:09:04,VALID,917.059,VALID,0,VALID,71.6754,VALID,390.226,VALID,26.275,VALID,1,VALID,0,
2016-06-16, 11:10:04,VALID,917.06,VALID,0,VALID,72.2624,VALID,313.298,VALID,26.2925,VALID,360,VALID,0,
2016-06-16, 11:11:04,VALID,917.046,VALID,0,VALID,70.4099,VALID,309.108,VALID,26.3316,VALID,182,VALID,0,
2016-06-16, 11:12:04,VALID,917.031,VALID,0,VALID,71.8888,VALID,346.283,VALID,26.1753,VALID,79,VALID,0.941406,
2016-06-16, 11:13:04,VALID,916.967,VALID,0,VALID,71.9269,VALID,366.052,VALID,26.019,VALID,46,VALID,0,
2016-06-16, 11:14:04,VALID,917.005,VALID,0,VALID,71.1265,VALID,355.523,VALID,25.8628,VALID,60,VALID,0,
2016-06-16, 11:15:04,VALID,916.955,VALID,0,VALID,72.1633,VALID,411.392,VALID,25.7847,VALID,53,VALID,0,
2016-06-16, 11:16:04,VALID,916.979,VALID,0,VALID,70.7301,VALID,649.159,VALID,25.7046,VALID,46,VALID,0,